Погода Туапсе

Погода Туапсе : погода сейчас, прогноз погоды и архив. Всё, что Вы хотите узнать о погоде Туапсе!

Хотите узнать прогноз погоды Туапсе? Тогда Вам сюда: Погода Туапсе

Поиск расширенной информации на нашем сайте:

Другие новости

Новости СМИ2

Главная страница сайта

Новости сайта

03.07.2017

Напоминаем, что на нашем специализированном сайте Метеоцентр.Азия вы можете получить высокодетализированные автоматические прогнозы погоды по пунктам России, СНГ и мира в авиационном формате (включающие направление и скорость ветра, видимость, явления погоды, количество и форму облачности, нижнюю и верхнюю границу облачности).


Погода Туапсе - сегодня

Время (UTC), дата Ветер
(°,м/с) 
Видим.   Явления Облачность Т
(°С)
Тd
(°С)
f(%) Тe
(°С)
Pmin
(гПа)
dP
(гПа)
Po
(мм)
O2
(г/м3)
Тmin Tmax R s Состояние
почвы
21 16.04.18 030 (СВ) 10 км    ясно 
+10.6 +6.3 75 +12  1021.5  -1  761  294           
00 17.04.18 040 (СВ) 10 км    ясно 
+8.9 +5.4 79 +10  1021.6  761  296           
03 17.04.18 030 (СВ) 20000 м    9/0 средняя, верхняя 
[Ac trans|Ci fib]
+8.3 +0.4 57 +8  1021.5  -0.1  760  297  +7.9        влажная 
06 17.04.18 210 (ЮЗ) 20000 м    9/3 1000 м средняя, верхняя 
[Sc|Ac trans|Ci fib]
+14.1 +4.4 52 +15  1022.3  0.9  761  291           
09 17.04.18 230 (ЮЗ) 20000 м    8/3 1000 м средняя, верхняя 
[Cu med, cong|Ac trans|Ci fib]
+17.7 +7.9 53 +18  1022  0.1  761  287           
12 17.04.18 230 (ЮЗ) 20000 м    10/4 1000 м средняя, верхняя 
[Cu Sc|Ac trans|Ci fib]
+17.9 +8.9 56 +18  1021.4  -0.6  761  286           
15 17.04.18 290 (З) 20000 м    10/6 1000 м средняя, верхняя 
[Cu Sc|Ac trans|Ci fib]
+14 +7.9 67 +15  1020.6  -0.9  760  290    +19.5       
18 17.04.18 тихо ()   10 км    10/8 1000 м средняя 
[Cu Sc|Ac As]
+12.1 +7.5 73 +12  1020.4  -0.3  760  292           
21 17.04.18 тихо ()   10 км    3/3 1000 м 
[Cu med, cong]
+11.9 +8.6 80 +12  1020.9  0.6  760  292           
00 18.04.18 050 (СВ) 10 км    ясно 
+11.5 +8.1 80 +13  1021  -0.1  760  293           
03 18.04.18 050 (СВ) 20000 м    10/4 1000 м верхняя 
[Sc|Ci sp]
+10.7 +4.8 67 +11  1021.8  0.7  761  294  +10.6        влажная 
06 18.04.18 220 (ЮЗ) 20000 м    10/3 1000 м верхняя 
[Cu med, cong|Ci]
+14.9 +7.9 63 +16  1022.8  1.1  762  290           
09 18.04.18 220 (ЮЗ) 20000 м    10/4 1000 м верхняя 
[Cu Sc|Ci]
+16.4 +6.3 51 +17  1022.1  -0.6  761  288           
12 18.04.18 230 (ЮЗ) 20000 м    10/3 1000 м верхняя 
[Cu Sc|Ci]
+18 +4.5 41 +19  1021.3  -0.8  761  287           
15 18.04.18 270 (З) 20000 м    10/3 1000 м верхняя 
[Cu Sc|Ci]
+17.7 +4.3 41 +19  1020.2  -1.1  760  287    +19.3       
18 18.04.18 040 (СВ) 10 км    4/3 1000 м верхняя 
[Cu med, cong|Ci fib]
+12.7 +5.1 60 +14  1020.4  -0.1  760  292           
21 18.04.18 010 (С) 10 км    3/0 верхняя 
[Ci fib]
+11.5 +4.9 64 +13  1019.6  -0.9  759  293           
00 19.04.18 030 (СВ) 10 км    6/0 верхняя 
[Ci]
+10.7 +3.8 62 +12  1018.9  -0.6  759  294           
03 19.04.18 270 (З) 20000 м    8/4 1000 м верхняя 
[Cu Sc|Ci]
+10.2 +4 65 +10  1017.7  -1.3  758  294  +9.8        влажная 
06 19.04.18 200 (Ю) 10 км  слаб. ливневой дождь  10/10 600 м кучево-дожд. 
[Cb cap]
+12.5 +10.2 86 +13  1018.1  0.5  758  290           
09 19.04.18 140 (ЮВ) 6-13{14}  20000 м  {ливн. осадки}  10/8 1000 м кучево-дожд., средняя, верхняя 
[Cb cap|Ac trans|Ci fib]
+13.4 +9.7 78 +13  1016.4  -1.6  757  289           
12 19.04.18 180 (Ю) 4{16}  10 км  слаб. ливневой дождь  10/10 600 м кучево-дожд. 
[Cb cap]
+13 +9.9 81 +14  1014.6  -1.8  755  289           
15 19.04.18 160 (Ю) 10 км  в посл. час ливневой дождь  10/8 1000 м кучево-дожд., средняя, верхняя 
[Cb cap|Ac trans|Ci fib]
+12.8 +10.1 84 +13  1013.1  -1.5  754  288    +13.8     
18 19.04.18 190 (Ю) 3{12}  4000 м  слаб. ливневой дождь  10/10 600 м кучево-дожд. 
[Cb cap]
+12.6 +10.4 86 +14  1012.2  -0.8  754  288           
21 19.04.18 200 (Ю) 2{10}  4000 м  слаб. ливневой дождь  10/10 600 м кучево-дожд. 
[Cb cap]
+11.9 +10 88 +13  1011.1  -1.2  753  289           
Время (UTC), дата Ветер
(°,м/с) 
Видим.   Явления Облачность Т
(°С)
Тd
(°С)
f(%) Тe
(°С)
Pmin
(гПа)
dP
(гПа)
Po
(мм)
O2
(г/м3)
Тmin Tmax R s Состояние
почвы

Для получения пояснительной информации подведите курсор к названию столбца.

ПОГОДА Туапсе - архив

Всё, что Вы хотите узнать о погоде Туапсе - удобно и подробно!

Выберите нужную дату (начиная с 1 января 2015* года) и нажмите кнопку "Найти".
Будут отображены архивные сводки погоды по пункту Туапсе, начиная с указанной даты.


Отображать данные в формате CSV (для использования в таблицах Excel)


Внимание! Наш архив погоды предназначен исключительно для личного некоммерческого использования в познавательных целях. Если Вам необходимы официальные справки о состоянии погоды (для производственных, юридических, коммерческих и т.п. целей), обращайтесь в органы Росгидромета.

*Примечание: данная дата относится к архиву по метеостанциям СССР (Россия, СНГ, Балтия).
Архив по метеостанциям Зарубежной Европы и Азии (кроме Китая) хранится 10 дней, по другим регионам земного шара (Китай, Африка, Америка, Австралия, Океания) - 1 день.

Туапсе - район местоположения метеостанции


Название, широта, долгота, высота метеостанции:
Туапсе 44.1°ш. 39.1°д. 61 м над ур. моря [Российская Федерация]

Дополнительная информация

В oтличие oт бoльшинства пoгoдных сайтoв мы публикуем пoдрoбную метеoинфoрмацию в детальнoм прoфессиoнальнoм фoрмате.

Характеристики температуры и влажнoсти вoздуха измеряются на высoте 2 м в тени вдали oт зданий и деревьев.
Скoрoсть ветра измеряется на высoте 10 м (на урoвне рoста челoвека скoрoсть ветра ниже в 1.5-2 раза). Если метеoстанция нахoдится в гoрoде или в лесу, тo скoрoсть ветра занижена на 2-4 м/с пo сравнению с oткрытым местoм. Скoрoсть ветра над акватoриями крупных рек и oзёр, а также на вершинах хoлмoв на 2-5 м/с выше, чем в oбычных услoвиях.
Атмoсфернoе давление в разных тoчках местнoсти мoжет значительнo oтличаться oт давления на метеoстанции, в зависимoсти oт услoвий рельефа (при пoдъёме на 10 м давление пoнижается примернo на 1 мм рт.ст.).